DECAYED

STARLINK-1325, 45554 (Decayed)

Orbit data source: Space-Track

STARLINK-1325, 45554 was a payload satellite owned by SpaceX/Seattle (US) in LEO that was launched on Wed, 22 Apr 2020 UTC via an FALCON 9 launch vehicle from the Air Force Eastern Test Range (AFETR). Payload-class satellites include a variety of spacecraft equipped with specific instruments for various scientific and technological missions. These include communications satellites like Starlink; space stations such as the ISS; scientific satellites like the Hubble; Earth observation satellites from companies like Planet Labs, Umbra, and HawkEye 360; GPS; miniature CubeSats for education and research; and military/defense satellites.

Not visible in the next 10 days
Identifier
45554, 2020-025Z
Orbit
Decayed
Country
Flag of USUS
Related business
Manufacturer
SpaceX/Seattle
Mission
Decayed Commercial Communications
Bus & Motor
STARLINK, Unknown motor
Mass
260 kg wet, ~248 kg dry
Launch date (UTC)
2020-04-22 (6 years ago)
Launch vehicle
FALCON 9
Launch site
Air Force Eastern Test Range (AFETR)
Object type
Payload
Rocket body
Debris
Shape & HBR
Box + 1 Pan, 10.1 m
Radar Cross Section
13.562 m², Large (>1 m²)

Expand to show TLE details & history
Last TLE update: 3 months ago

TLE from 3 months ago
0 STARLINK-1325
1 45554U 20025Z   26029.80521777  .12622787  12349-4  91666-3 0  9997
2 45554  53.0367 158.8826 0007659 265.2745  94.7427 16.39928328320958
Epoch: 2026-01-29T19:19Z
TLE epoch observation values (Epoch: 2026-01-29T19:19:30.815Z)
Latitude
0.00001°
Longitude
99.95156°
Altitude
167.34 km
Speed
7.807 km/s
True Right ascension
10h 35m 31s
True Declination
0° 00' 00"
Sunlit
Object was in full shadow at epoch
Visualization orbit readout
Latitude
Unknown
Longitude
Unknown
Altitude
Unknown
Speed
Unknown
Apparent Right ascension
Unknown
Apparent Declination
Unknown
Sunlit
N/A
Visualization observer readout
Local Sidereal Time
23:38:12
Azimuth
Unknown
Elevation
Unknown
Doppler factor
Unknown
Orbital elements
Apogee altitude
171.295 km
Perigee altitude
161.27 km
Semi-major axis
6,544.419 km
Eccentricity
0.00077
Inclination
53.0367°
RAAN
158.8826°
Arg. of periapsis
265.2745°
True anomaly
94.83016°
Mean anomaly
94.7427°
Eccentric anomaly
94.78643°
Mean motion
4.09955 °/min
Orbital period
87.81 mins
BSTAR
0.00091666
Loading maneuver chart data...
Computing Atmospheric mass density...
Loading historical data...
Loading historical data...
Loading historical data...
Loading historical data...
Loading historical data...
Loading historical data...
Loading historical data...

Documentation

Showing up to 5 results
|